Location: Westminster
(33.3626°N, 96.4619°W)
Time: 03:54:03
(UTC+00:00)

OAO 3 Rocket - Pass Details

Date: 07 July 2022
Orbit: 628 x 681 km, 35.0° (Epoch: 08 August)

Event Time Altitude Azimuth Distance (km) Brightness Sun altitude
Exits shadow 08:25:50 43° 94° (E) 944 4.1 -27.7°
Drops below altitude 10° 08:29:11 10° 99° (E) 2,110 6.0 -27.4°
Sets 08:31:34 0° 100° (E) 3,023 6.9 -27.1°
